Regional Weather Roundup
Issued by NWS Green Bay, WI

Home | Current Version | Previous Version | Graphics & Text | Print | Product List | Glossary Off
Versions: 1 2 3 4 5 6 7 8 9 10 11 12 13 14 15 16 17 18 19 20 21 22 23 24 25 26 27 28 29 30 31 32 33 34 35 36 37 38 39 40 41 42 43 44 45 46 47 48 49 50

994
ASUS43 KGRB 130700
RWRGRB

NORTH-CENTRAL AND NORTHEAST WISCONSIN REGIONAL WEATHER ROUNDUP
NATIONAL WEATHER SERVICE GREEN BAY WI
100 AM CST SAT FEB 13 2016

WIZ005-009-010>012-018-019-130800-
NORTH CENTRAL WISCONSIN

CITY           SKY/WX    TMP DP  RH WIND       PRES   REMARKS
IRONWOOD       CLOUDY     1  -2  85 NW10      30.41R WCI -14
MANITOWISH WTR NOT AVBL
ARBOR VITAE    NOT AVBL
EAGLE RIVER    NOT AVBL
LAND O LAKES   NOT AVBL
RHINELANDER    CLEAR     -7 -14  71 W10       30.35R WCI -25
PHILLIPS       NOT AVBL
ANTIGO         NOT AVBL
TOMAHAWK       NOT AVBL
MERRILL        NOT AVBL
$$

WIZ013-073-130800-
NORTHEAST WISCONSIN

CITY           SKY/WX    TMP DP  RH WIND       PRES   REMARKS
IRON MOUNTAIN  CLEAR    -11 -16  78 CALM      30.33S
MARINETTE      CLEAR     -2 -11  65 W6        30.41R WCI -14
$$

WIZ017-030-035>037-045-130800-
CENTRAL WISCONSIN

CITY           SKY/WX    TMP DP  RH WIND       PRES   REMARKS
MEDFORD        NOT AVBL
WAUSAU         CLEAR     -3 -15  56 NW13      30.43R WCI -22
MOSINEE        NOT AVBL
MARSHFIELD     CLEAR     -5 -19  51 NW13      30.45R WCI -24
WISC RAPIDS    CLEAR     -2 -18  46 NW10      30.50R WCI -19
STEVENS POINT  NOT AVBL
WAUPACA        NOT AVBL
SHAWANO        NOT AVBL
CLINTONVILLE   NOT AVBL
WAUTOMA        NOT AVBL
$$

WIZ038-039-048-051-130800-
FOX VALLEY

CITY           SKY/WX    TMP DP  RH WIND       PRES   REMARKS
NWS GREEN BAY  CLEAR     -2 -13  59 W9        30.45S WCI -18
APPLETON       NOT AVBL
OSHKOSH        CLEAR     -1 -14  53 W13       30.46R WCI -19
FOND DU LAC    CLEAR      0 -13  54 NW13      30.47R WCI -18
$$

WIZ022-050-052-130800-
EAST CENTRAL WISCONSIN

CITY           SKY/WX    TMP DP  RH WIND       PRES   REMARKS
EPHRAIM        NOT AVBL
STURGEON BAY   CLEAR     -2 N/A N/A W15       30.42R WCI -22
MANITOWOC      NOT AVBL
SHEBOYGAN      CLEAR      0 -12  57 NW12      30.45R WCI -17
$$

LMZ563-521-522-541>543-130800-
LAKESHORE

STATION/POSITION TIME  TEMP    WIND        PRES    VSBY  WAVE
                       AIR SEA DIR/SP/G                  HT/PER
                 (UTC) (F)     (DEG/KT/KT) (MB)    (MI)  (FT/S)
SHEBOYGAN LKSHOR 0600    2     290/ 15/ 17 1032.8R
KEWAUNEE LKSHORE 0600    0     290/  8/ 11 1029.4R
CHAMBERS ISLAND  0600    1     290/  8/ 13 1029.1S
MENOMINEE LKSHOR 0600    0     260/  9     1028.6R
$$




USA.gov is the U.S. government's official web portal to all federal, state and local government web resources and services.